Location: Madden
(51.3728°N, 114.3297°W)
Time: 05:42:09
(UTC+00:00)

PCSat - Pass Details

Date: 05 December 2023
Orbit: 784 x 791 km, 67.0° (Epoch: 02 March)

Event Time Altitude Azimuth Distance (km) Brightness Sun altitude
Exits shadow 14:08:33 14° 280° (W) 2,058 11.1 -11.3°
Maximum altitude 14:12:03 26° 330° (NNW) 1,508 10.6 -10.8°
Drops below altitude 10° 14:16:35 10° 27° (NNE) 2,363 12.1 -10.1°
Sets 14:19:24 0° 39° (NE) 3,296 13.0 -9.7°
